Theta_e
302 302 302 301 302 302 303 303 304 304 303 306 309 312 305 304 303 313 317 319 316 308 299 300 296 297 300 300 298 299 296 298 299 297 298 296 297 297 295 296 294 296 297 296 296 296 294 295 296 300 299 298 303 306 306 306 305 305 302 303 304 304 295 294 295 297 302 302 302 304 304 303 301 301 302 301 298 299 296 294 296 292 294 291 291 287 292
302 302 301 302 302 302 303 304 304 305 304 304 305 305 305 306 306 307 315 320 315 305 292 292 294 298 299 299 299 299 300 298 297 296 297 297 297 295 296 296 297 297 298 297 295 297 290 296 297 297 301 300 305 306 306 306 304 302 300 297 304 294 298 295 290 291 293 294 297 299 302 302 299 298 301 301 303 302 302 301 300 291 293 292 288 284 292
302 301 301 302 302 303 303 304 304 305 304 305 304 304 308 308 310 308 310 315 312 300 302 297 294 297 296 297 295 296 296 299 300 298 297 298 298 297 296 298 298 296 298 296 297 298 295 293 298 299 299 298 305 305 305 306 306 307 306 306 307 297 296 292 287 285 281 281 284 288 289 293 296 299 300 301 299 301 300 292 295 288 293 294 289 288 296
301 301 302 302 302 303 303 304 305 304 304 303 303 306 308 305 293 304 306 309 307 306 306 302 298 296 296 292 295 297 295 296 299 299 298 299 298 298 298 298 298 296 296 294 294 294 298 295 295 296 297 300 302 304 304 304 306 308 305 306 305 297 300 299 296 290 288 291 290 295 296 295 293 295 296 298 301 302 300 298 292 290 294 292 294 295 296
301 301 302 302 302 303 303 304 304 304 303 303 306 309 308 307 298 298 295 304 304 302 302 300 300 295 299 290 296 294 295 296 297 299 296 297 298 297 297 296 294 295 295 294 294 295 295 296 295 295 296 299 301 303 303 303 304 304 306 306 305 301 293 296 296 296 296 297 297 297 296 292 294 294 295 298 299 301 299 293 292 300 292 288 296 298 296
301 301 302 302 302 303 303 304 304 303 303 303 306 305 308 297 302 304 307 298 294 295 295 300 299 298 298 295 298 295 294 295 292 296 299 299 299 296 296 296 296 296 295 296 291 294 294 295 291 296 296 296 301 300 301 301 304 306 305 307 304 301 293 297 297 296 297 298 297 298 297 296 296 295 297 296 297 300 297 298 300 299 292 290 297 300 298
301 301 301 302 302 303 303 304 305 304 302 302 307 303 307 305 305 305 306 297 299 300 300 300 299 297 297 295 297 294 295 294 296 296 296 297 297 298 290 295 295 296 296 295 293 294 290 289 295 295 296 295 298 297 300 301 302 303 304 305 307 300 295 297 297 295 295 298 298 298 297 296 296 297 297 298 299 299 299 299 299 298 298 300 299 299 297
300 301 301 302 302 303 303 304 305 305 302 304 306 308 304 302 301 299 303 303 300 300 300 299 298 296 296 291 295 295 295 294 296 296 296 291 295 298 295 295 296 296 296 296 294 295 296 296 291 299 296 296 297 296 297 297 301 302 302 302 306 298 292 297 298 293 292 296 298 298 297 298 296 297 297 298 299 299 298 298 298 299 300 299 300 299 295
300 300 301 301 302 302 303 304 305 304 304 308 308 308 310 309 310 309 300 297 298 298 298 297 296 293 294 294 294 296 295 295 296 296 298 297 295 296 295 296 297 296 297 297 296 297 298 298 297 298 297 292 299 295 298 299 296 299 300 301 302 300 293 300 297 290 289 295 296 296 297 297 297 294 294 294 295 294 295 293 296 295 293 297 298 295 292
300 300 301 301 302 302 303 304 304 304 303 307 310 307 312 310 311 310 304 294 296 297 299 298 296 291 296 297 295 295 295 297 296 291 296 297 298 298 297 297 297 296 296 295 297 299 298 299 299 299 300 301 299 300 299 298 297 297 299 300 296 298 295 290 292 287 287 293 296 296 295 294 289 287 291 292 295 295 297 297 296 296 297 293 291 292 296
299 300 300 301 301 302 303 304 304 304 307 309 308 308 310 308 304 305 303 294 293 298 296 295 295 294 296 296 295 297 297 296 297 292 290 298 297 298 299 298 297 294 296 298 300 301 301 301 301 302 300 299 299 299 299 299 299 297 298 298 297 298 296 292 296 285 288 287 290 294 290 283 283 291 295 295 293 293 292 292 293 295 296 294 298 297 298
299 300 300 301 301 302 303 304 304 304 304 308 310 309 313 313 309 306 299 293 292 299 297 293 295 295 295 295 296 295 295 296 297 298 296 297 299 299 299 298 297 290 298 302 302 301 302 302 301 301 299 298 298 299 298 298 300 301 300 297 297 295 296 293 295 286 287 291 291 286 281 283 291 296 296 297 297 295 291 294 294 294 295 296 297 297 297
299 300 300 301 301 302 303 303 304 304 305 308 309 310 315 314 311 304 300 297 292 295 293 294 297 296 297 296 295 296 296 296 297 298 297 297 298 298 299 298 297 298 301 300 300 299 295 295 296 297 297 297 297 297 297 298 298 301 301 301 299 293 292 292 290 292 291 288 287 278 281 288 294 295 296 297 298 294 295 293 292 293 295 294 293 295 295
299 300 300 301 301 302 302 303 304 304 305 306 308 311 314 313 307 304 299 296 293 298 299 296 295 295 296 296 296 296 296 295 297 297 296 298 297 298 299 298 300 302 301 302 299 298 294 295 290 292 292 293 294 292 296 298 299 299 299 300 301 299 298 295 290 295 285 286 286 285 289 289 289 290 290 290 287 289 288 285 288 293 295 295 293 294 294
300 300 300 301 301 302 303 303 304 304 305 305 309 312 313 314 312 309 307 301 294 296 298 290 295 297 297 296 295 295 295 297 295 295 297 300 297 299 300 300 302 301 302 299 298 298 293 292 287 286 287 286 283 285 294 291 295 300 299 299 299 302 294 297 291 288 290 287 285 284 283 281 283 289 294 296 295 293 293 290 289 293 294 296 294 294 293
299 300 300 301 301 302 303 303 304 304 305 304 310 312 312 313 312 310 306 300 296 289 295 300 301 297 297 296 296 294 293 292 293 295 295 295 295 298 300 301 302 303 300 297 298 295 292 288 285 285 284 285 283 286 285 290 289 296 299 299 300 299 299 292 291 289 289 287 282 282 280 281 287 289 293 295 296 295 294 289 285 290 293 294 294 292 292
299 300 300 301 302 302 303 304 304 305 305 304 308 311 310 315 311 311 306 302 300 292 299 300 301 298 295 293 293 294 296 293 295 290 290 293 295 296 298 299 304 302 299 298 298 294 291 289 292 289 286 290 285 285 287 288 286 288 294 297 297 292 294 294 290 287 287 286 285 280 282 281 287 291 293 294 296 296 291 283 282 289 294 294 293 292 291
300 300 300 301 302 302 303 304 304 305 305 305 308 311 309 316 313 313 308 302 295 294 298 300 298 296 296 297 295 295 297 295 294 296 295 295 294 294 295 297 297 300 302 295 296 291 289 289 287 286 284 289 289 289 282 285 285 284 286 288 289 290 291 292 288 289 287 285 284 286 285 288 291 292 294 295 296 292 284 279 283 292 294 295 294 293 293
300 300 300 301 302 302 303 304 305 305 306 305 309 313 308 310 313 311 311 302 298 291 297 299 300 298 299 299 298 297 297 299 298 292 290 290 294 296 297 298 300 294 298 294 296 290 289 289 295 292 288 289 291 284 288 285 283 288 286 285 286 287 287 290 289 286 286 288 285 283 284 287 292 293 296 296 292 283 282 288 294 293 293 293 293 291 291
299 300 300 301 302 303 303 304 305 306 306 306 307 307 308 314 311 313 309 300 299 295 298 299 299 297 300 300 298 297 299 298 298 296 294 291 298 298 296 292 297 299 297 299 290 293 290 288 290 292 288 289 289 291 286 287 291 287 285 286 285 283 284 287 285 286 288 287 284 282 278 286 293 293 294 294 287 286 292 293 293 293 291 291 291 290 289
299 300 300 301 302 303 304 305 305 306 306 306 304 308 303 311 316 320 320 305 299 293 294 301 301 300 300 300 301 299 298 296 297 296 298 298 301 298 290 289 295 297 293 294 289 290 291 289 292 290 294 291 289 292 284 285 288 292 291 288 287 290 285 286 286 289 283 281 279 278 284 288 293 292 286 290 292 295 295 294 290 292 292 291 289 290 290
299 300 300 301 302 303 304 305 305 306 306 306 304 315 303 308 312 312 309 308 300 296 299 302 302 302 302 302 302 303 300 299 300 302 300 296 301 299 298 299 298 299 300 300 296 293 297 296 296 291 289 290 296 288 290 285 283 288 293 291 282 291 288 289 284 288 285 282 283 288 291 293 294 294 294 295 296 297 296 295 293 291 291 293 291 290 291
300 300 301 301 302 303 304 305 305 306 305 305 308 308 302 305 307 311 310 301 303 303 303 302 302 302 302 302 303 304 304 305 305 305 305 299 296 300 300 299 298 302 303 304 299 298 297 297 291 297 292 292 290 288 290 288 285 288 285 292 290 295 295 295 291 288 292 293 292 294 293 294 295 298 298 296 297 298 298 295 293 293 294 294 292 292 292
300 300 301 301 302 303 304 305 305 306 305 305 307 309 305 307 307 307 304 302 297 296 300 304 299 294 297 297 301 303 303 302 303 306 308 306 298 296 300 301 303 305 301 303 303 299 297 297 296 297 289 294 295 289 286 284 286 290 288 288 291 295 296 294 289 292 289 282 292 292 293 295 296 296 297 299 299 298 298 296 295 295 295 294 295 294 294
300 300 301 302 302 303 304 305 305 306 305 306 310 308 309 309 312 308 303 294 296 295 289 292 295 299 300 302 303 301 302 304 306 306 307 308 305 299 297 301 305 303 300 304 308 301 297 292 294 292 287 294 295 287 293 288 287 293 287 289 291 290 298 291 291 290 286 286 291 293 295 296 297 296 295 295 296 297 298 298 298 297 297 296 296 296 294
300 300 301 302 303 303 304 305 305 305 305 305 307 311 306 306 313 312 308 306 303 299 290 289 294 302 302 300 298 300 303 304 303 303 304 303 305 307 305 305 304 307 306 306 304 298 296 294 293 292 291 290 299 291 289 293 291 295 291 289 293 294 296 288 292 288 290 292 293 293 294 294 294 296 297 297 297 296 297 298 297 298 297 297 297 297 296
300 301 301 302 302 303 304 305 305 304 304 305 311 310 308 309 313 310 307 305 299 291 293 290 295 298 300 298 301 303 303 303 304 303 302 302 303 307 307 306 304 304 303 302 302 297 297 295 294 292 295 293 297 294 295 292 293 289 289 294 297 293 289 292 290 286 286 287 289 293 287 286 291 294 296 297 298 298 297 297 297 297 297 296 296 296 297
300 300 301 302 302 304 305 305 305 304 305 304 310 310 312 309 311 311 313 310 304 293 292 292 294 297 302 298 301 302 303 303 303 302 301 301 303 305 305 304 304 302 301 298 293 294 294 292 291 293 294 297 294 290 296 295 295 292 291 292 296 293 293 292 288 287 286 292 294 295 294 294 294 295 297 298 298 298 296 296 297 297 297 297 296 296 296
300 300 301 302 303 304 305 305 305 304 304 304 313 308 308 310 311 313 311 316 314 301 297 297 300 299 292 296 302 301 302 304 303 302 302 301 301 303 304 303 302 302 301 298 295 294 293 292 295 293 293 298 295 290 293 286 287 285 290 295 296 297 299 296 295 294 294 295 295 296 294 292 294 296 297 297 298 297 296 297 298 298 298 298 298 298 296
300 300 301 302 303 304 305 305 305 305 303 310 310 305 298 300 309 310 311 312 313 304 295 292 289 291 302 301 299 299 300 302 302 303 302 301 302 303 302 303 302 302 301 296 295 291 293 293 293 299 300 303 294 291 289 289 287 289 294 295 296 297 297 297 298 295 293 297 297 297 296 296 297 297 297 298 298 298 297 296 297 297 297 298 298 298 299
300 301 302 302 303 304 304 305 305 304 302 311 307 296 294 291 301 311 309 312 313 307 296 295 291 296 295 300 301 298 299 299 301 301 302 302 302 302 303 303 302 301 295 295 294 293 293 290 292 294 298 298 295 291 289 288 286 288 293 295 295 296 296 296 298 298 297 297 297 297 297 297 298 296 296 297 297 297 296 296 296 297 297 297 297 297 297
300 301 301 302 303 303 304 305 305 304 310 306 302 300 303 306 308 308 308 311 312 305 295 291 290 291 290 295 299 301 300 300 300 302 302 303 300 303 302 302 298 302 296 294 294 294 292 293 292 294 295 297 294 291 291 288 286 287 293 294 296 296 297 297 297 297 298 298 297 295 295 295 296 294 293 297 297 298 297 297 297 298 297 297 297 297 297
300 301 301 302 303 303 305 305 304 305 306 305 302 303 305 304 303 306 308 314 309 302 302 294 289 290 290 293 299 300 302 302 299 300 297 303 299 302 297 302 301 299 301 295 292 290 295 293 293 291 296 299 291 290 290 286 289 293 294 294 295 296 296 297 297 297 297 297 297 293 291 293 295 296 297 297 297 297 297 296 297 297 296 295 295 296 296
300 301 301 302 303 304 304 305 304 300 302 308 306 305 309 303 309 304 312 315 305 303 299 292 288 289 289 298 294 297 301 297 296 297 291 301 303 301 296 299 299 293 297 294 294 294 294 293 291 291 295 291 292 289 285 289 293 293 294 294 295 295 296 296 296 296 296 296 297 297 296 297 297 297 297 296 296 297 297 297 297 295 295 295 295 295 296
300 301 301 302 303 303 303 303 309 308 303 303 304 309 309 303 302 305 312 310 294 292 292 292 294 288 288 290 289 294 301 299 293 296 292 296 303 298 298 292 293 291 291 301 293 293 290 291 296 290 287 293 289 285 287 291 292 294 294 294 295 295 295 294 294 296 296 297 297 297 297 297 296 295 295 295 296 296 296 295 296 295 294 294 294 295 296
300 301 302 303 302 304 307 306 308 303 301 302 303 306 302 306 307 317 317 311 304 295 291 290 293 290 290 286 286 290 300 295 298 298 296 295 296 300 298 294 289 293 300 294 289 293 290 295 292 286 291 287 285 289 290 293 293 294 295 295 295 296 295 295 295 295 296 297 297 297 296 297 296 295 295 295 295 295 296 295 296 296 295 295 295 296 296
300 301 301 302 305 306 303 299 303 306 306 309 308 303 301 305 312 313 311 308 307 306 298 292 291 292 294 289 291 292 298 289 296 294 295 293 290 293 294 291 288 291 291 290 290 289 292 299 291 287 287 286 287 294 295 295 294 294 294 295 295 296 295 296 297 296 296 296 296 296 296 296 295 295 295 295 295 296 295 295 295 295 294 295 295 295 296
301 300 305 304 304 295 293 296 303 309 305 304 304 304 303 304 296 296 296 294 298 301 296 299 292 295 297 294 288 297 298 292 297 290 291 293 290 290 293 290 289 290 286 288 291 298 294 291 289 287 287 293 294 294 295 295 296 296 296 296 296 296 297 296 296 296 294 292 292 293 293 294 294 294 294 295 295 295 295 296 296 296 296 295 296 296 296
301 306 306 305 299 292 294 302 309 300 309 305 306 298 294 297 294 290 291 294 293 292 295 296 291 296 296 293 293 300 298 292 291 292 287 294 290 285 291 285 289 290 286 286 288 298 287 287 287 287 286 290 291 293 296 296 296 297 297 297 297 297 297 297 297 296 295 295 295 295 295 294 293 294 295 295 295 296 296 296 296 296 296 296 296 297 297
305 302 298 298 295 298 302 305 300 303 305 297 297 295 289 293 290 286 294 289 290 292 294 291 297 297 298 294 291 291 300 297 289 288 289 291 297 288 290 290 290 288 282 284 286 296 287 283 286 286 284 289 290 294 295 295 295 296 297 297 297 297 298 297 297 298 298 297 297 297 297 297 296 296 295 295 295 295 295 296 296 297 297 297 296 296 297
304 301 299 296 300 302 302 304 307 305 297 292 291 291 290 287 292 292 290 288 288 288 296 296 296 295 296 298 297 291 297 302 299 298 293 288 295 295 288 285 290 286 284 284 289 291 288 286 286 286 286 290 292 294 295 295 295 296 297 298 298 298 298 297 298 297 297 297 297 297 297 297 297 297 297 296 296 296 296 296 296 296 297 297 297 297 298
306 306 306 307 304 304 304 301 298 293 293 293 288 285 288 289 291 290 291 287 287 290 293 296 291 294 293 297 296 296 294 300 296 293 291 286 290 290 286 288 289 285 282 288 291 289 287 282 284 285 289 292 294 295 295 295 295 296 297 297 297 297 298 297 297 297 297 297 297 297 297 297 297 297 297 297 296 296 296 296 297 297 297 298 298 298 299
299 300 306 301 299 296 297 291 293 292 285 285 284 282 287 284 286 286 287 292 294 293 293 302 297 299 299 300 296 299 294 300 293 291 290 286 291 291 287 285 285 282 286 292 289 286 283 282 284 287 292 293 294 295 295 296 296 296 297 298 298 298 298 298 297 297 298 298 298 298 297 297 298 298 298 298 297 297 297 297 297 297 297 298 299 298 298
307 303 298 294 292 292 293 282 292 288 285 286 283 279 283 283 286 289 287 289 293 292 296 293 294 294 289 297 293 291 292 294 294 293 290 291 289 286 285 282 284 289 293 287 286 283 284 286 288 291 293 294 295 295 296 296 296 296 296 297 297 298 298 298 297 297 297 298 298 298 298 297 297 298 298 298 297 296 297 297 297 298 298 299 299 299 299
296 293 292 290 287 290 288 281 290 286 280 283 286 286 285 284 286 288 289 292 296 293 296 297 295 296 291 295 296 293 293 290 294 289 285 289 286 287 284 284 288 288 285 282 284 285 285 284 291 293 293 293 294 295 296 296 296 296 296 296 297 297 297 297 297 296 296 296 296 296 296 297 297 297 297 297 298 298 297 297 298 298 299 299 299 299 300
292 290 289 284 279 286 287 283 285 282 288 288 287 291 290 292 292 293 297 298 297 296 295 296 297 295 291 294 291 289 292 292 289 288 289 289 284 282 288 291 289 284 283 284 282 281 283 288 290 292 294 294 295 296 296 296 297 297 296 295 296 296 297 297 297 297 297 297 297 297 297 297 297 297 297 297 297 298 298 299 299 299 299 299 298 298 299
292 292 292 289 284 286 290 284 284 288 290 292 294 294 295 296 297 297 298 298 297 298 298 298 297 296 292 291 291 291 292 292 287 288 290 285 283 285 290 285 280 283 279 279 281 283 285 290 292 294 295 295 295 295 296 296 296 296 296 296 296 296 297 297 297 296 297 297 297 297 297 297 297 297 297 297 297 298 298 300 300 300 299 298 298 298 299
288 292 291 283 282 286 284 288 294 294 295 296 295 297 298 298 296 294 297 299 299 299 297 296 292 294 292 295 296 289 290 290 286 287 289 286 287 284 283 282 281 284 284 282 283 288 291 293 294 294 295 296 296 295 296 296 296 297 297 296 296 296 296 296 296 297 297 297 297 297 297 297 297 297 296 297 297 298 299 299 300 300 300 299 298 298 298
293 290 287 286 288 288 288 293 292 291 293 295 296 296 295 295 294 296 298 300 297 296 296 296 291 292 288 291 290 288 285 289 284 283 287 286 282 278 279 277 280 279 284 287 288 290 291 294 295 295 296 296 296 296 296 296 296 296 296 296 297 297 297 296 297 297 298 298 297 297 297 297 297 297 297 297 297 297 300 300 300 300 300 299 299 298 298
290 289 290 289 288 290 294 294 293 290 293 294 294 294 296 295 295 296 299 298 299 298 297 295 294 291 289 289 285 287 286 289 287 286 284 282 282 283 283 279 281 282 284 289 291 292 294 294 295 295 295 295 295 296 296 296 294 295 297 297 297 297 297 297 297 297 297 297 297 298 298 297 297 296 296 297 297 298 299 299 299 299 300 300 299 299 298
293 291 291 296 290 289 291 287 288 288 290 292 294 294 295 294 295 295 300 299 298 295 291 289 290 289 287 286 285 281 284 289 286 284 284 283 286 284 282 281 284 289 289 293 294 294 294 295 294 294 294 295 295 296 296 296 296 296 297 297 297 297 297 297 297 297 297 298 298 293 296 297 297 298 298 299 298 298 297 297 298 299 299 299 299 299 299
289 287 288 292 297 294 294 295 295 293 294 295 295 296 297 295 296 297 300 298 296 291 290 292 289 287 284 282 285 288 289 287 285 286 283 286 288 284 284 287 289 290 292 293 294 295 294 295 295 294 295 295 295 296 296 297 297 297 297 297 297 296 296 297 297 297 297 297 297 297 297 297 298 298 298 298 297 297 296 296 297 299 300 300 299 300 299
Wind_Speed
10 10 10 10 11 12 13 14 14 13 11 9 3 4 5 7 3 7 9 8 8 6 5 4 4 4 3 3 2 5 5 6 5 6 5 5 3 1 5 1 5 2 5 1 6 1 3 1 4 3 7 6 7 3 2 3 9 5 4 8 3 3 3 8 9 6 11 10 9 9 10 11 10 9 10 7 9 9 9 8 7 10 6 6 5 6 4
11 11 10 11 12 13 14 14 14 13 7 7 7 7 6 4 7 7 8 7 7 5 4 5 4 4 4 5 5 2 2 5 7 6 5 8 8 5 3 2 4 3 3 5 7 2 3 3 4 4 2 5 5 5 5 3 2 4 3 3 9 6 4 8 4 5 6 7 8 9 9 9 8 5 6 11 11 10 8 8 5 5 9 8 3 8 2
11 11 10 11 12 13 14 15 15 13 10 8 6 4 4 5 5 5 7 8 6 5 4 4 3 5 5 6 6 7 4 2 8 3 3 1 2 1 5 5 4 6 2 5 3 3 4 1 2 6 5 2 4 5 4 3 3 8 6 8 2 5 1 1 7 6 7 8 11 6 2 5 9 8 9 8 12 12 7 7 7 8 9 12 7 4 4
11 10 11 11 13 14 14 14 13 11 11 6 6 5 4 7 3 5 6 6 6 5 2 3 2 4 4 1 3 5 6 3 3 5 3 4 0 6 5 2 5 6 3 5 7 6 4 5 1 3 3 5 4 3 4 3 4 7 4 4 1 2 4 8 5 7 8 4 1 5 5 4 4 8 7 11 7 6 9 6 5 7 3 3 8 5 4
10 10 11 12 13 14 14 14 11 9 10 4 6 8 6 2 3 5 4 5 5 3 5 4 5 3 3 3 5 5 2 4 6 4 3 4 5 3 6 3 3 4 4 5 5 7 6 6 5 2 3 4 4 2 2 4 8 3 2 3 3 4 3 5 11 14 9 5 4 8 8 6 4 5 10 8 6 5 4 4 3 6 5 7 7 3 7
10 10 11 12 13 14 15 13 11 7 9 8 5 5 7 3 4 3 2 2 4 5 3 3 3 5 6 3 3 4 5 5 4 3 2 2 3 6 6 9 2 4 3 1 4 6 7 5 1 4 3 3 6 6 6 2 5 5 1 2 3 5 4 2 2 9 12 5 2 6 6 4 3 4 6 6 9 6 4 3 4 5 4 3 5 1 7
10 10 11 12 13 14 15 14 12 5 6 6 5 5 4 4 3 2 3 2 5 3 5 3 5 5 2 5 5 2 3 6 4 3 5 6 4 7 1 6 3 2 2 4 5 2 5 3 1 4 4 4 5 5 4 5 3 1 2 2 3 4 5 3 4 5 10 12 6 5 5 4 5 3 3 5 5 4 5 5 6 7 6 1 5 6 7
9 10 11 12 13 14 14 14 12 8 7 7 7 7 3 3 3 6 1 1 6 5 5 4 4 5 1 3 1 3 4 4 4 3 2 1 2 2 2 8 2 4 4 3 4 1 2 4 1 3 4 4 5 5 3 3 2 3 2 1 2 1 1 4 1 3 7 12 5 6 6 5 4 2 6 7 8 3 7 6 10 9 3 5 1 5 6
9 10 11 12 13 14 14 15 13 10 11 5 5 4 3 3 3 2 3 6 5 4 5 6 5 5 5 3 4 4 3 5 2 4 5 6 5 3 3 3 2 3 7 2 1 2 2 2 2 3 3 3 3 3 3 3 5 4 1 3 0 3 4 3 4 5 3 8 6 6 5 4 4 6 8 8 8 6 7 6 9 9 8 9 5 0 2
10 10 11 12 13 14 14 14 13 12 12 5 4 5 1 2 1 2 3 2 2 3 1 3 3 3 3 5 7 4 3 3 2 3 1 3 6 4 6 3 5 5 0 2 2 5 4 5 6 5 4 4 5 4 4 4 5 3 2 3 3 3 4 1 4 5 5 2 5 5 4 3 2 5 7 7 5 5 4 9 11 10 9 6 6 5 4
9 10 11 12 13 14 14 14 13 10 9 4 4 3 1 2 1 4 3 2 3 4 5 4 3 8 5 4 5 2 3 1 3 3 1 3 6 2 1 2 4 3 4 4 3 6 6 6 6 5 5 6 7 6 5 7 7 6 5 4 4 6 8 4 4 4 1 2 5 8 5 6 2 5 6 5 6 7 6 7 9 10 9 7 5 6 5
9 10 11 12 13 14 14 14 13 9 7 6 5 7 4 5 4 4 4 3 2 1 4 4 4 6 4 4 2 5 5 4 3 6 2 1 6 3 1 3 0 1 5 3 5 6 8 7 8 7 7 7 7 7 6 8 4 4 7 8 5 6 6 5 3 1 2 5 1 3 6 2 6 4 8 7 4 6 3 5 10 11 11 10 7 8 10
9 10 11 12 13 14 14 14 13 12 8 7 6 6 4 4 4 4 3 2 4 5 2 7 4 5 4 4 2 3 3 3 2 1 2 2 3 3 3 4 3 5 3 5 6 6 6 5 5 6 7 5 6 7 8 6 5 3 6 6 6 4 5 5 5 5 3 1 3 3 2 2 4 3 9 9 3 8 4 5 12 11 10 7 7 8 8
9 10 11 12 13 14 15 14 14 13 9 7 6 5 5 3 4 5 3 3 3 3 5 6 4 5 3 2 1 1 3 3 1 1 3 3 4 3 5 1 4 3 4 5 6 5 4 4 4 4 7 7 5 5 5 3 2 6 5 5 5 8 6 3 6 2 6 4 3 4 7 6 8 3 8 8 5 6 5 2 7 11 9 7 2 4 6
10 10 11 12 13 14 15 14 14 13 11 9 7 7 4 2 3 5 4 4 2 3 3 1 5 5 2 1 1 3 4 3 3 5 5 3 4 3 1 1 1 4 3 6 3 3 3 0 3 4 4 4 4 1 5 3 8 7 4 6 7 6 5 2 3 1 3 5 2 5 5 3 5 6 5 5 3 2 3 2 3 11 10 8 5 3 5
10 11 11 12 13 14 15 15 14 13 11 12 7 5 2 3 4 5 6 2 3 4 3 7 6 2 2 2 0 4 2 0 2 2 5 4 5 5 4 2 2 3 5 5 4 2 2 2 2 4 2 3 1 4 2 2 3 5 3 2 5 5 6 3 4 5 3 2 5 1 2 5 5 8 7 6 4 2 2 3 2 8 9 8 5 4 4
10 10 11 13 14 15 15 14 14 12 11 10 6 4 1 3 3 4 5 2 2 4 5 4 4 2 2 3 4 4 2 1 1 1 2 4 5 1 4 1 1 4 4 4 3 3 3 3 4 3 4 5 2 2 2 3 0 2 7 5 1 1 5 4 6 6 5 5 2 4 4 4 9 9 7 7 5 1 3 4 3 8 9 8 6 4 4
10 11 12 13 14 15 16 15 16 14 12 11 7 5 2 2 2 5 6 1 3 4 5 4 3 3 2 6 3 4 1 2 3 2 2 5 3 5 3 4 5 6 3 4 2 1 0 2 2 1 4 2 2 3 1 2 3 4 5 6 3 0 3 4 5 4 3 4 7 6 4 3 11 9 8 5 1 3 1 4 5 8 7 8 7 8 7
11 12 12 14 14 15 16 16 16 15 14 12 8 6 2 2 1 2 7 1 3 3 5 5 4 7 6 4 6 3 4 5 2 2 1 2 3 5 3 3 5 2 6 2 3 1 0 1 2 4 2 3 2 3 2 2 3 2 6 3 0 2 5 1 2 0 0 1 5 7 5 3 11 13 7 4 4 1 4 3 5 7 8 8 8 8 9
12 12 13 14 15 16 16 16 16 15 13 11 7 3 4 3 1 4 5 3 6 7 6 5 3 6 3 4 2 1 3 5 2 5 1 2 4 4 3 3 5 4 2 4 0 4 1 2 5 4 4 5 6 5 6 7 6 6 2 1 3 4 6 2 4 2 3 4 6 4 3 5 14 15 2 12 3 4 2 4 8 7 7 8 9 9 9
12 12 13 14 15 16 16 16 16 15 15 13 8 4 4 1 1 4 5 2 6 6 5 3 6 8 7 7 6 7 8 7 6 6 5 3 4 1 1 2 3 2 0 0 0 2 1 3 3 2 3 3 5 4 4 6 8 8 6 4 7 8 2 2 4 6 5 6 6 4 3 7 10 10 6 6 6 3 4 4 6 7 7 8 9 10 10
12 12 14 15 16 16 16 17 17 17 15 13 10 6 5 4 3 3 3 4 5 5 7 8 8 8 8 7 5 6 8 7 8 6 6 2 3 3 2 2 2 4 4 4 0 3 0 4 4 3 3 4 3 4 2 3 6 6 8 0 4 9 7 5 7 7 5 5 4 0 2 4 7 9 9 9 9 9 9 9 7 8 8 9 9 11 10
13 13 14 14 15 16 16 17 17 17 17 18 13 2 7 6 5 5 6 9 8 8 6 6 6 7 7 8 6 5 5 5 4 5 6 6 1 2 3 2 3 3 2 2 4 5 5 3 4 4 6 5 4 7 9 8 6 6 6 6 6 6 11 9 13 15 16 11 6 9 10 11 12 11 9 11 12 11 10 10 10 10 10 9 10 11 10
13 14 14 14 15 16 16 16 17 16 16 16 12 0 6 6 7 7 7 7 4 6 5 4 4 4 6 7 6 5 5 6 7 4 3 3 4 2 6 5 4 2 3 4 3 5 5 3 5 4 5 4 2 5 5 8 7 9 8 6 6 6 5 7 7 8 4 8 7 12 13 13 14 15 14 13 12 12 11 11 11 11 11 11 11 11 11
14 14 14 15 15 16 16 16 16 15 16 15 13 4 6 5 3 2 6 4 3 2 4 4 5 5 6 6 5 7 7 4 2 3 2 2 5 7 7 5 4 5 6 4 4 2 3 3 5 5 5 3 5 6 5 5 8 4 7 7 7 10 9 12 12 13 11 10 10 12 12 12 12 11 12 13 13 13 13 11 11 11 12 12 12 11 11
14 15 14 15 15 15 15 15 16 14 13 16 15 2 4 4 4 4 2 3 5 5 5 5 6 3 5 7 8 7 5 4 4 5 5 6 8 7 4 2 3 1 1 2 3 0 3 3 3 4 5 7 6 7 7 10 10 8 8 8 6 6 4 6 9 11 13 13 12 12 13 13 12 12 12 11 10 11 13 13 12 12 12 11 10 9 10
14 15 15 14 15 15 15 15 15 14 15 14 9 4 4 4 3 5 5 3 4 4 3 6 6 7 7 9 5 4 4 4 4 4 4 3 4 3 3 2 3 3 2 4 5 4 4 5 5 7 7 6 4 8 7 7 8 7 8 7 5 10 11 11 9 9 8 8 9 7 7 8 9 11 11 11 10 10 11 10 11 11 11 10 11 10 10
15 15 15 14 14 15 14 15 13 13 14 15 9 3 3 3 3 4 5 6 7 2 5 6 6 8 5 9 6 6 6 6 5 5 5 5 4 4 3 4 3 3 3 3 4 3 5 7 9 4 4 6 7 8 8 10 9 9 9 9 8 7 5 1 4 6 7 7 8 9 10 10 9 9 9 9 9 9 9 8 9 9 9 9 9 9 9
15 15 15 15 14 14 14 13 14 13 14 14 4 4 4 3 3 4 5 4 6 2 5 6 6 5 2 5 1 7 7 7 6 6 5 6 5 4 5 5 4 5 7 7 6 5 6 6 3 4 4 5 2 7 6 8 8 9 9 10 10 11 10 12 13 12 11 10 10 8 8 9 8 8 8 8 7 8 9 8 7 7 7 6 6 6 6
14 15 15 15 15 14 14 14 13 12 12 7 4 5 4 4 2 3 5 5 7 1 4 4 4 4 3 4 7 4 7 7 8 8 7 6 5 4 5 5 5 5 5 4 4 6 5 5 4 6 4 5 1 5 5 8 8 9 8 9 9 10 10 10 10 10 10 9 10 10 10 9 8 8 7 7 8 8 8 7 7 6 6 5 5 5 4
15 15 15 15 15 14 14 14 13 12 9 4 5 3 3 3 3 3 7 7 5 5 3 2 5 4 5 2 3 5 6 7 7 7 7 6 5 6 5 5 7 6 5 5 5 6 4 6 4 5 4 8 3 5 7 8 9 9 9 9 10 10 10 11 10 11 11 10 10 9 8 8 7 7 7 7 7 7 7 7 7 9 8 4 5 4 4
15 15 15 15 14 14 13 13 13 11 6 3 4 4 4 4 5 6 8 7 7 3 4 5 4 3 3 3 4 2 4 3 5 4 4 3 7 5 7 6 6 7 6 6 5 4 5 4 3 5 7 5 3 7 7 8 9 9 8 9 9 10 10 10 10 11 11 10 9 8 7 6 4 4 6 5 6 5 7 8 7 6 3 4 5 5 4
15 15 15 15 14 13 12 11 11 9 3 5 5 9 7 5 5 6 6 5 6 2 2 2 3 2 2 7 5 4 2 3 4 3 6 2 7 4 6 6 7 7 4 4 4 5 5 5 4 5 7 6 5 5 9 8 11 11 11 9 9 10 10 9 9 7 6 5 5 5 5 6 7 7 6 5 5 5 5 5 5 4 4 4 4 4 3
15 15 15 14 14 13 11 10 10 7 2 4 3 4 5 10 5 4 7 5 2 2 3 3 3 2 4 4 5 4 6 1 5 3 5 2 1 3 4 5 4 4 2 5 4 4 4 4 6 7 6 6 5 6 8 10 11 11 10 10 9 9 9 9 8 8 7 7 7 8 7 7 6 6 5 4 5 4 3 3 3 3 2 2 2 2 2
15 15 15 13 12 12 12 10 5 5 2 4 5 3 5 9 8 9 6 4 2 1 1 1 1 5 4 3 3 5 3 4 4 2 4 2 4 5 4 3 3 3 2 1 3 4 4 5 6 5 7 6 4 6 6 10 11 11 10 10 8 8 8 8 7 7 7 6 7 7 7 6 5 5 5 4 3 2 2 1 0 2 1 1 2 1 1
15 15 14 13 13 10 5 6 5 3 4 3 5 4 5 8 8 3 3 1 5 0 3 1 3 4 2 5 3 3 4 5 5 4 5 2 4 2 4 4 5 4 2 1 5 4 5 1 2 6 3 4 5 6 9 10 11 10 9 9 7 7 6 7 6 6 6 5 5 5 4 4 4 3 2 2 1 0 1 3 1 2 3 2 3 4 3
15 15 15 13 6 4 4 1 2 4 4 4 4 8 9 7 2 3 4 5 4 4 1 2 2 3 4 6 2 2 4 3 3 4 4 3 3 1 4 3 5 2 3 4 4 4 3 4 3 6 4 6 7 9 8 7 9 8 8 7 6 6 4 5 7 7 7 6 5 5 5 4 2 2 1 1 0 1 2 2 1 2 2 3 3 5 5
14 13 6 5 5 2 2 2 2 3 5 4 4 2 4 5 3 3 2 1 2 4 0 5 3 5 3 6 5 4 4 4 3 3 2 3 3 3 2 3 3 2 5 3 4 2 3 3 5 6 6 7 7 7 7 7 7 7 5 5 4 3 5 6 4 4 5 4 3 3 1 1 2 1 2 1 1 1 1 3 3 4 4 3 4 4 4
10 5 5 4 4 2 1 5 4 3 3 3 4 2 3 2 3 1 1 1 2 2 1 2 4 4 3 4 6 2 4 1 3 4 4 0 1 4 2 4 1 1 5 3 4 6 3 4 4 5 6 7 8 8 7 7 6 5 5 4 3 4 4 4 0 2 2 4 4 4 3 3 2 1 0 2 1 1 2 3 2 1 3 4 4 4 4
5 5 2 3 0 5 6 5 3 2 4 3 2 1 3 2 2 2 1 2 1 2 2 3 2 3 6 4 6 5 1 4 3 5 4 4 4 1 2 1 2 2 5 3 4 4 3 5 4 5 6 5 8 7 7 7 7 6 6 6 6 6 5 5 4 4 4 4 3 3 1 1 1 4 3 2 2 3 2 3 2 3 3 3 3 6 5
6 3 4 2 6 5 7 6 5 4 3 2 1 0 1 2 0 1 2 3 2 2 3 4 4 5 1 1 4 4 4 3 5 6 3 3 1 2 3 3 1 1 3 4 3 3 2 4 4 4 5 6 8 8 8 7 7 7 6 6 6 6 5 5 4 3 3 3 3 1 0 2 3 4 2 3 4 4 3 3 4 3 3 5 4 4 4
5 3 4 4 5 6 6 5 3 2 0 0 2 1 1 1 1 2 2 3 3 2 5 5 5 7 5 1 6 3 3 4 1 1 2 3 0 1 3 2 1 2 3 3 4 2 2 3 4 5 5 9 9 8 8 8 8 7 7 6 6 4 5 4 4 2 3 2 1 2 2 2 4 3 4 4 4 4 5 4 4 2 5 4 4 4 3
10 7 6 4 5 4 2 3 0 0 1 0 1 2 1 2 3 4 3 1 2 3 4 3 6 6 5 1 5 4 3 1 2 1 1 3 1 1 3 2 2 2 3 4 3 2 3 3 2 9 8 9 8 8 7 8 7 7 6 5 5 4 3 2 3 3 2 1 2 2 2 3 3 4 4 5 5 5 5 4 5 4 5 5 4 4 4
4 5 4 3 3 2 1 2 1 0 1 1 3 3 4 3 4 2 2 3 3 2 6 5 5 6 4 1 1 4 3 3 1 1 2 1 2 2 1 3 1 4 2 3 2 4 3 2 2 9 9 9 6 8 8 7 7 6 6 5 5 3 3 3 1 2 2 2 1 0 3 2 3 4 3 5 5 6 6 5 4 4 6 6 5 5 4
5 3 2 2 1 2 1 1 2 2 3 3 3 3 4 4 4 4 2 4 5 6 6 4 6 5 5 3 1 3 2 3 1 1 2 2 2 2 2 2 2 2 3 4 3 3 3 4 4 9 10 9 8 8 7 6 6 6 6 4 4 2 1 2 1 2 2 2 2 2 4 4 4 4 4 5 5 4 5 5 5 6 5 6 5 5 5
3 3 3 3 2 3 1 2 2 3 2 3 3 3 5 4 5 4 7 6 6 7 7 6 5 6 5 3 2 3 2 2 3 2 2 2 3 2 2 1 1 3 2 3 3 4 5 3 6 8 10 9 8 8 7 6 4 3 4 3 4 2 1 2 2 3 3 3 4 4 5 5 5 5 5 5 6 7 6 6 5 5 5 5 5 6 6
2 2 2 1 2 2 2 2 4 2 3 5 1 1 1 5 5 6 5 4 7 6 7 6 6 5 5 4 2 2 1 2 2 1 2 2 2 2 0 1 2 2 4 4 4 3 4 4 4 9 10 10 9 7 6 5 4 4 3 1 1 2 2 3 3 3 4 4 4 5 5 5 5 5 5 6 6 6 7 6 6 6 6 6 5 5 6
3 0 1 2 3 3 5 2 1 2 1 1 3 1 5 5 6 6 6 5 6 5 6 4 5 3 3 1 3 3 3 2 4 2 0 2 2 1 2 1 2 2 2 3 3 3 4 6 8 9 9 9 8 7 6 5 4 3 2 1 2 2 2 3 4 4 4 4 5 5 5 6 6 5 6 6 6 6 6 5 5 5 5 6 6 6 6
1 3 2 1 1 3 3 2 4 4 4 3 4 5 6 6 6 6 4 6 7 6 7 6 2 1 3 2 2 3 3 3 2 2 2 2 2 3 3 3 4 4 2 3 4 3 3 6 8 9 10 9 8 6 5 4 4 3 2 2 1 2 3 3 3 3 4 4 4 4 4 4 5 6 5 5 6 6 5 4 5 5 5 6 6 6 6
2 1 1 2 2 2 2 4 4 4 5 5 6 6 6 7 6 7 5 6 5 5 1 5 0 1 3 2 2 2 2 2 2 2 3 3 2 2 2 4 3 3 4 5 2 4 6 7 8 8 9 8 7 5 5 4 1 3 1 2 3 3 3 2 4 3 3 4 3 3 5 5 6 5 6 5 5 5 6 6 6 6 6 6 7 6 6
1 2 2 1 2 3 4 4 4 5 5 7 6 6 5 6 6 6 3 5 5 4 3 4 3 2 3 2 2 3 2 2 2 4 3 3 2 2 2 3 4 3 4 2 6 6 7 8 8 8 7 7 6 5 5 4 4 3 1 3 3 3 2 2 3 3 4 4 2 4 5 5 5 6 6 5 6 7 7 6 5 6 6 6 6 6 7
2 2 3 3 4 3 7 5 6 6 7 6 6 5 5 7 6 6 3 5 5 5 3 3 2 2 2 3 1 2 2 2 1 1 2 2 1 2 2 1 3 2 4 4 7 7 8 7 7 6 7 6 5 4 3 1 2 3 3 2 2 3 3 3 3 3 3 3 4 4 4 5 5 5 4 6 6 6 6 5 5 5 5 5 6 6 6
Wind_Direction
331 330 332 329 327 331 332 331 331 331 330 313 327 308 226 209 84 99 156 173 205 207 225 196 202 223 75 76 101 124 188 252 130 223 159 207 267 254 233 155 228 250 310 292 280 320 258 233 249 282 137 131 23 47 261 299 247 247 29 319 279 310 238 233 241 240 245 232 291 266 252 256 248 242 258 268 248 243 243 228 259 270 247 251 343 277 96
333 330 329 330 333 332 334 332 329 326 330 311 302 272 237 172 133 165 173 186 222 241 211 176 191 150 168 236 113 321 45 234 164 258 121 277 151 245 213 177 260 350 219 253 282 46 275 157 237 226 281 46 358 33 1 278 22 85 138 96 270 251 217 267 253 274 261 298 250 255 308 256 241 262 354 344 304 272 261 265 266 272 260 265 220 269 81
332 332 330 332 334 335 335 334 324 323 318 287 261 267 224 137 142 149 158 184 220 241 318 284 154 149 179 176 162 152 197 34 354 305 133 280 324 278 215 293 40 247 136 264 284 247 306 236 358 347 71 140 228 58 30 3 46 93 159 208 246 264 170 241 247 233 242 226 215 221 173 328 340 343 360 358 293 286 270 246 237 253 246 251 234 225 125
331 333 332 337 339 338 336 333 325 323 326 272 223 251 250 166 156 154 155 198 207 256 268 324 157 142 172 188 137 226 150 143 198 264 154 295 64 284 345 204 242 267 272 249 230 230 173 272 275 230 216 181 141 44 60 32 45 64 34 292 222 295 298 272 279 270 280 46 134 147 130 266 313 348 321 273 299 355 313 299 285 267 324 320 18 58 88
332 336 338 342 342 339 338 333 329 338 344 317 247 264 263 262 202 157 166 168 212 228 204 184 220 167 170 151 194 198 176 124 158 235 285 183 268 152 266 290 197 271 308 304 289 248 237 211 243 211 239 3 33 83 310 72 75 147 177 337 259 237 256 274 275 259 272 1 78 127 161 209 220 268 280 300 315 347 295 272 291 357 322 238 118 108 116
336 341 340 340 340 339 338 334 332 359 333 334 267 247 213 218 111 165 115 264 158 187 171 215 115 133 225 89 263 186 177 184 147 190 324 124 216 268 152 223 199 243 255 272 258 267 255 250 283 286 262 251 186 191 153 238 118 216 181 159 274 284 269 183 254 283 293 274 200 168 184 205 179 251 303 303 303 336 359 329 9 350 274 296 21 185 128
347 339 339 339 340 340 336 334 341 338 344 294 271 261 163 266 127 131 124 250 77 45 102 183 147 167 235 133 217 151 206 175 149 209 159 215 149 243 99 282 158 264 266 254 245 267 256 215 117 305 305 300 317 261 171 208 147 231 49 356 25 291 245 314 302 292 302 269 229 203 234 189 222 228 319 345 328 342 11 359 13 329 311 307 127 83 87
338 335 338 341 339 338 337 337 338 332 305 254 256 252 259 178 168 138 155 130 131 135 149 150 185 130 198 182 26 142 172 161 144 196 193 299 186 234 195 229 240 218 250 252 237 140 308 20 111 59 331 264 243 297 41 328 195 201 77 124 89 170 253 89 323 300 303 270 218 233 225 210 196 77 18 7 342 8 33 8 12 326 259 321 49 116 94
334 336 337 341 339 338 339 337 339 335 320 239 230 258 274 339 353 318 179 157 116 139 156 184 195 124 196 199 166 207 178 141 249 119 322 165 219 210 209 273 314 273 248 111 190 129 41 282 22 284 309 298 41 293 2 326 306 310 359 287 108 215 280 282 244 256 261 252 225 225 197 202 157 60 38 5 10 11 13 40 22 22 2 342 313 105 62
335 335 336 339 338 338 339 340 339 339 308 286 291 240 145 262 272 272 279 152 199 205 286 57 176 161 60 33 156 208 144 90 211 88 315 359 23 10 356 2 281 232 225 267 287 14 326 336 334 332 295 267 279 261 275 293 306 290 255 320 274 317 4 7 267 257 238 346 283 179 206 215 159 42 10 346 6 3 25 55 33 27 355 5 16 59 69
334 334 335 337 337 338 339 341 341 350 332 305 304 304 252 295 253 198 222 158 179 210 166 177 244 69 121 175 142 13 117 127 217 222 122 242 133 73 202 287 279 301 45 27 14 294 304 298 298 296 276 258 256 251 239 243 245 261 257 213 233 217 235 278 81 251 64 30 317 292 192 217 142 56 15 354 19 23 14 33 20 17 16 344 354 70 92
335 334 335 335 336 338 340 339 340 356 343 311 294 286 338 333 288 254 220 183 145 219 201 88 58 125 186 143 158 155 163 188 123 353 139 187 41 36 277 199 326 281 53 314 312 295 267 252 250 246 260 264 255 249 253 255 251 233 248 250 239 228 248 237 152 221 270 130 85 281 250 109 99 82 34 359 35 34 26 59 37 23 10 8 56 64 69
335 338 336 336 335 337 340 340 344 349 357 323 287 287 5 327 300 261 245 223 136 220 202 123 129 140 125 128 154 118 39 64 93 107 360 245 185 157 290 347 259 49 14 324 304 280 261 257 265 257 259 251 229 232 235 218 236 269 282 271 261 257 258 269 255 259 97 311 161 222 81 118 164 87 26 8 31 12 314 102 41 28 16 14 29 50 61
336 339 338 337 336 338 339 341 345 344 348 331 285 284 310 312 282 247 230 231 143 169 51 95 160 136 161 160 107 160 149 212 203 195 249 205 244 246 117 230 15 5 295 311 272 260 259 209 234 227 217 215 200 230 213 233 4 318 318 273 265 267 279 257 266 253 267 238 237 87 118 112 40 26 18 19 10 350 16 35 50 27 15 9 37 59 78
342 340 340 338 338 340 340 343 344 342 337 326 285 277 274 286 307 295 320 293 161 138 235 223 123 125 145 158 251 248 211 174 200 195 192 119 249 247 336 50 21 321 333 289 272 205 241 273 233 234 182 218 217 191 34 317 331 312 329 308 304 309 258 350 268 291 251 261 129 137 184 166 72 26 12 16 14 341 290 273 122 28 13 12 20 61 93
342 341 339 340 340 340 342 342 342 339 333 326 277 274 313 3 312 284 282 288 134 179 90 43 37 72 210 146 299 274 337 306 236 182 161 188 212 205 190 233 324 321 287 258 265 267 267 253 249 260 277 83 92 258 180 190 252 198 222 246 244 214 250 231 240 253 270 316 235 238 194 82 19 5 357 355 333 305 207 244 130 17 10 13 33 78 103
344 343 341 342 341 342 341 340 341 339 332 340 311 292 97 43 302 309 283 211 39 72 69 71 37 332 273 149 183 203 247 285 306 235 194 169 168 135 138 194 152 234 244 272 241 220 198 209 243 58 26 347 244 360 263 214 236 319 2 307 256 248 230 216 230 247 228 248 251 82 20 50 360 345 352 342 327 224 211 229 84 1 13 26 30 69 92
348 346 345 343 342 341 340 338 340 340 337 339 310 304 42 68 296 294 264 210 118 86 58 21 316 261 37 26 33 48 285 211 206 230 310 109 179 185 132 187 205 183 276 260 245 239 279 309 329 340 80 65 23 277 98 358 35 2 356 344 333 222 230 212 250 248 93 84 103 114 96 57 352 348 340 355 7 202 289 14 354 337 354 32 31 38 42
350 346 346 344 341 341 339 337 337 338 339 340 318 262 124 7 337 282 290 170 119 94 62 69 48 47 51 64 31 40 6 342 332 238 147 174 88 36 318 24 330 160 197 235 257 265 14 72 48 27 44 99 103 45 66 36 37 360 15 10 351 12 329 168 151 205 198 178 92 89 87 40 345 333 338 22 247 354 51 37 23 16 42 39 45 58 65
349 348 347 346 344 341 340 336 336 335 334 340 325 314 65 353 308 302 319 75 93 104 110 93 92 89 20 6 53 38 146 185 324 308 355 69 109 193 197 173 180 273 182 255 183 342 304 88 72 119 90 89 80 107 89 84 56 40 76 4 14 6 306 45 49 351 246 107 105 100 58 29 358 319 259 13 26 46 18 46 52 45 52 57 60 73 84
352 350 350 347 346 343 340 337 337 337 337 340 342 297 110 66 310 257 263 101 118 107 97 73 75 57 53 64 33 24 9 23 359 342 37 53 44 274 232 95 120 201 92 252 260 122 112 122 137 84 86 83 142 213 97 96 84 64 43 53 42 352 290 81 71 359 45 54 57 57 9 310 350 20 58 25 53 60 47 23 60 56 66 75 80 80 88
355 352 351 349 346 344 340 339 339 339 338 337 329 273 106 85 72 13 57 73 98 94 82 72 73 75 61 63 63 26 21 15 20 353 333 33 147 309 32 221 17 352 22 327 6 134 223 94 113 104 104 108 167 86 77 73 58 48 61 357 65 357 47 25 71 13 45 72 83 42 188 53 44 58 75 68 70 73 67 68 73 78 82 90 88 94 91
357 355 352 350 347 344 342 341 344 342 341 339 332 161 97 128 106 104 104 97 100 104 122 118 119 112 110 79 58 40 43 33 1 4 1 329 301 105 3 37 77 6 337 42 311 9 77 83 77 83 96 71 86 96 88 76 83 65 68 32 111 105 96 96 81 86 90 85 99 100 83 79 80 79 77 75 72 70 75 80 81 78 88 92 96 98 94
359 355 353 351 347 345 344 345 345 344 341 336 324 357 112 102 129 130 116 118 123 121 113 93 93 56 44 56 59 61 54 52 27 24 8 337 342 116 114 54 7 204 73 19 320 358 71 62 79 83 84 32 360 94 100 103 94 112 107 130 129 129 123 86 98 146 123 77 98 89 90 89 86 83 84 84 81 81 85 88 91 97 96 97 95 99 97
358 355 354 352 347 347 346 345 345 343 339 334 330 76 111 125 25 23 131 132 151 128 100 82 63 54 68 51 62 61 43 18 54 14 358 300 333 4 49 31 357 7 68 14 319 204 121 112 113 96 85 52 304 87 50 94 107 99 101 102 127 100 90 85 79 82 87 109 102 94 89 85 84 85 83 79 80 83 83 89 97 104 106 104 107 108 107
358 356 354 352 347 347 345 344 346 341 337 328 317 269 86 61 5 325 260 67 81 117 118 101 103 105 68 74 58 48 20 21 41 53 41 40 42 37 76 115 105 304 14 320 280 42 93 96 79 81 77 66 35 81 70 50 75 71 85 73 58 113 175 93 107 97 104 107 100 95 87 79 78 78 79 84 90 94 100 102 101 105 110 112 113 113 114
356 356 352 351 347 346 344 343 343 341 335 332 323 67 68 93 22 348 1 355 134 95 113 108 110 104 97 79 61 69 49 57 42 59 75 61 71 67 34 37 104 125 107 79 40 57 56 66 73 82 67 77 79 90 108 110 85 84 78 72 99 104 100 120 113 110 113 114 119 125 109 101 91 82 79 81 85 91 92 96 102 110 108 110 113 114 117
354 352 351 349 348 344 343 340 339 336 334 326 301 54 58 70 41 3 345 358 326 121 125 128 121 96 107 74 54 51 43 48 44 62 73 82 69 46 37 30 16 75 113 145 122 99 93 95 87 88 89 84 84 77 72 74 82 78 67 47 25 73 70 300 114 113 110 108 96 89 92 94 89 99 105 103 98 90 84 80 84 91 98 107 117 121 119
350 351 349 348 345 343 340 336 334 332 332 320 264 144 118 62 40 47 3 339 298 127 111 107 138 164 104 58 353 80 56 59 61 64 65 80 86 73 54 43 69 73 63 61 68 78 76 71 58 71 70 351 352 105 98 86 79 76 68 67 56 48 65 81 85 100 102 108 106 106 104 104 107 95 86 81 77 80 87 92 89 91 101 111 108 114 114
347 349 347 344 343 340 339 332 328 324 323 297 232 181 147 132 72 25 2 327 308 145 132 137 108 87 110 66 65 61 78 69 67 61 72 81 82 84 87 90 84 90 94 82 92 93 85 91 81 87 80 297 106 97 104 99 94 86 80 79 74 79 83 90 95 99 106 100 103 105 108 109 102 91 76 64 52 52 65 74 85 105 106 100 99 106 124
342 343 343 340 340 338 333 329 323 319 312 283 236 177 191 157 115 42 1 326 325 298 113 111 100 115 96 65 29 59 75 74 68 64 71 74 80 93 90 104 107 107 97 98 97 99 118 98 101 91 90 9 344 107 100 105 99 97 90 91 93 92 91 94 97 98 103 105 104 108 104 101 104 107 95 92 108 104 89 81 55 32 354 50 80 88 102
338 339 338 337 335 334 329 325 322 312 291 336 348 359 10 32 34 336 330 306 305 256 117 125 151 144 95 108 92 350 73 93 119 105 77 84 88 74 76 60 63 59 80 96 91 98 84 106 101 93 89 27 19 90 93 100 102 100 106 99 97 99 100 104 108 108 106 111 118 113 105 104 124 100 91 91 89 84 82 92 94 108 230 77 73 63 67
334 335 333 332 330 328 326 317 320 320 65 74 114 141 103 24 337 310 319 316 259 113 159 154 99 128 152 107 135 95 17 231 131 136 93 26 101 107 100 110 103 93 77 93 89 95 102 100 101 90 72 86 93 98 93 93 100 115 114 109 104 100 98 94 94 98 108 133 137 110 107 110 109 106 116 113 101 100 109 84 76 87 89 108 93 86 85
330 330 328 326 324 323 316 311 298 307 186 189 151 86 54 13 330 11 325 280 354 93 254 111 153 149 101 197 179 114 287 246 115 144 106 67 5 139 116 119 88 77 34 97 113 119 120 111 92 92 95 78 85 93 94 102 112 108 101 99 108 110 115 121 122 113 95 78 80 94 97 89 92 100 114 101 97 72 68 117 142 119 87 72 79 44 31
325 324 323 317 315 319 306 291 279 241 169 100 83 70 22 352 331 290 298 311 205 118 68 187 154 134 160 178 121 110 284 243 122 78 115 90 285 127 142 130 146 137 85 220 118 97 115 103 122 105 88 105 102 99 112 122 119 121 124 125 118 116 121 117 114 105 106 106 102 108 126 128 126 122 108 116 136 132 137 118 37 322 2 19 25 240 246
321 319 316 315 309 293 264 224 246 210 147 93 87 57 1 309 295 290 296 249 311 303 161 139 199 135 177 141 140 125 254 79 88 88 86 130 93 55 109 103 107 78 230 181 113 136 113 165 253 105 130 114 100 106 120 132 128 127 129 126 138 131 117 109 114 110 94 90 84 76 82 109 111 112 131 100 84 357 6 321 20 283 304 336 341 310 278
316 316 307 292 270 204 218 140 89 1 38 30 351 332 298 286 218 239 224 231 154 312 308 174 208 103 17 88 100 122 251 137 188 126 169 159 97 107 130 141 105 142 128 107 114 114 111 268 99 110 110 103 95 108 113 103 114 121 99 91 98 119 131 118 119 129 140 144 161 167 147 132 127 120 133 167 38 15 281 247 294 309 328 328 318 320 328
316 307 274 202 201 169 132 142 88 33 328 303 288 221 166 225 167 180 172 201 25 291 217 277 87 117 196 155 117 117 264 120 244 128 105 112 135 90 96 105 106 226 124 108 87 21 104 95 94 97 98 97 99 80 86 102 95 102 126 125 131 93 102 123 191 158 126 164 149 134 135 65 46 46 325 42 254 185 269 325 360 350 337 334 328 311 297
279 242 223 226 196 155 103 101 65 21 300 177 247 227 147 230 153 159 155 101 189 187 286 263 123 195 148 98 106 97 327 151 153 150 154 61 249 134 224 145 174 204 111 144 131 261 122 109 121 128 118 131 129 118 118 111 111 93 88 89 96 122 136 129 150 47 53 46 64 49 352 2 18 37 100 260 274 269 311 285 257 240 317 330 312 313 311
203 204 186 184 146 91 94 107 127 204 211 189 195 215 150 235 189 187 224 186 172 102 217 120 85 38 359 139 148 138 70 305 187 165 127 134 319 165 164 131 119 176 146 170 131 235 164 141 136 134 132 142 116 140 134 131 120 118 110 110 112 109 103 99 96 64 66 73 10 9 40 256 242 301 321 301 295 288 257 272 313 324 335 326 2 314 316
210 181 207 133 108 121 124 147 177 212 208 171 118 260 128 187 337 78 186 199 174 132 309 95 158 158 81 21 145 144 136 286 356 54 127 112 51 296 139 120 176 180 163 130 141 221 150 138 168 155 127 131 135 138 129 128 120 120 112 107 106 103 107 111 118 125 194 183 164 222 120 348 278 266 270 298 314 304 320 294 293 314 313 314 304 307 312
1 329 5 69 102 116 146 167 197 152 6 174 164 171 181 155 163 217 225 227 152 156 166 173 172 166 155 344 85 123 125 321 321 163 136 129 284 301 111 129 194 169 134 94 156 178 155 156 179 130 139 136 139 143 137 127 129 125 121 116 114 126 128 127 124 109 37 341 352 260 320 351 323 292 272 269 264 261 268 278 290 306 291 285 296 288 306
284 262 269 170 145 160 195 151 129 214 164 196 176 138 185 196 192 197 167 320 65 189 118 344 54 56 82 219 102 13 60 9 251 192 121 110 174 255 140 132 189 156 117 142 207 148 159 195 191 123 149 143 157 148 149 134 125 114 110 114 109 100 97 85 64 71 28 20 27 335 345 287 299 314 339 309 286 277 286 297 307 304 284 293 296 298 289
219 189 187 147 144 128 203 140 194 9 321 190 161 168 191 193 187 200 195 157 164 152 140 179 156 201 140 242 146 130 134 157 282 78 90 124 176 104 133 168 118 79 139 186 179 171 163 166 170 141 149 149 166 152 137 142 142 139 134 128 124 128 113 119 193 228 168 202 213 45 276 282 283 282 258 257 285 299 291 291 289 288 289 287 288 293 290
158 188 145 141 141 163 148 55 240 194 203 199 225 191 173 201 173 208 176 121 202 137 159 151 176 188 120 112 109 128 263 133 166 194 122 180 133 149 179 121 116 179 188 165 186 170 132 192 142 141 147 163 162 150 149 160 149 158 140 151 158 149 181 273 152 257 256 258 296 316 288 302 305 298 298 300 286 276 290 284 281 278 280 287 286 284 288
194 160 155 123 12 290 214 163 166 214 227 156 208 189 196 183 170 149 99 184 148 141 170 167 163 122 139 174 272 138 176 147 146 106 145 147 134 113 51 87 191 171 188 180 184 172 189 179 140 153 157 166 161 153 164 165 164 133 151 189 150 186 223 287 291 293 286 298 303 302 306 307 290 283 287 294 295 290 289 288 283 286 293 293 300 292 283
165 185 192 148 150 191 233 182 194 203 168 191 185 247 282 71 91 114 132 151 146 157 131 167 144 148 155 154 140 132 157 107 115 138 228 123 112 102 255 189 184 172 184 184 174 176 192 182 161 151 160 162 164 162 165 157 174 178 217 155 227 253 277 275 283 282 305 313 294 284 282 290 297 300 295 282 286 294 287 277 271 262 265 281 294 297 300
160 205 231 173 197 180 199 214 114 111 319 68 124 148 105 121 137 127 162 167 111 143 134 127 116 149 126 124 273 140 123 113 121 127 29 107 130 139 146 154 185 195 179 186 184 207 155 138 158 159 160 161 163 172 168 166 168 184 224 220 241 256 256 273 291 302 312 306 304 301 301 294 290 291 287 288 286 284 286 288 283 275 271 273 280 284 282
250 184 201 201 208 179 211 138 187 161 145 145 156 147 153 153 120 118 103 99 139 143 164 179 132 175 119 164 121 119 132 141 158 138 161 169 140 156 171 179 174 174 192 210 184 198 136 141 145 157 155 161 167 172 161 162 170 192 218 258 286 297 283 274 285 303 296 276 281 298 292 311 308 290 282 301 303 302 299 291 284 281 277 274 272 270 272
192 161 293 203 192 225 153 191 209 138 145 144 162 161 156 131 133 123 166 164 132 126 7 57 326 268 129 180 139 141 155 176 113 156 176 161 167 191 180 156 172 196 178 228 138 125 127 138 149 158 160 168 162 165 160 161 72 282 227 233 235 248 264 312 293 275 279 305 309 318 319 301 282 296 315 321 303 293 288 284 282 282 282 276 275 273 275
290 256 228 296 254 172 172 196 165 147 158 166 163 139 152 139 141 138 176 131 155 144 185 172 132 137 141 127 133 156 116 97 154 170 178 170 173 174 156 164 214 205 148 143 102 128 136 148 157 163 158 161 171 171 163 167 187 232 254 273 284 275 277 262 265 265 256 247 246 248 259 283 320 323 315 298 290 298 299 292 295 290 283 284 278 277 278
194 214 209 176 257 182 203 166 145 167 156 151 144 134 150 139 151 129 179 173 156 202 179 117 145 138 132 162 163 104 123 191 164 157 140 119 200 144 210 220 156 120 130 151 135 138 143 156 149 144 164 153 161 169 185 175 237 247 258 262 267 270 260 245 245 248 262 275 280 283 298 301 311 309 306 303 299 277 269 294 310 296 290 287 289 284 279